Location: *
(49.4547°N, 7.9131°E)
Time: 13:40:55
(UTC+00:00)

KORONAS-FOTON - Pass Details

Date: 22 September 2019
Orbit: 506 x 533 km, 82.4° (Epoch: 21 October)

Event Time Altitude Azimuth Distance (km) Brightness Sun altitude
Rises 19:15:42 0° 351° (N) 2,626 7.8 -18.0°
Reaches altitude 10° 19:17:50 10° 353° (N) 1,734 6.8 -18.3°
Maximum altitude 19:21:38 77° 79° (E) 526 3.6 -18.9°
Enters shadow 19:22:38 47° 155° (SSE) 681 4.0 -19.0°
